Regional Weather Roundup
Issued by NWS

Home | Current Version | Previous Version | Text Only | Print | Product List | Glossary Off
Versions: 1 2 3 4 5 6 7 8 9 10 11 12 13 14 15 16 17 18 19 20 21 22 23 24 25 26 27 28 29 30 31 32 33 34 35 36 37 38 39 40 41 42 43 44 45 46 47 48 49 50

000
ASUS43 KLMK 180602
RWRKY
KENTUCKY REGIONAL WEATHER ROUNDUP
NATIONAL WEATHER SERVICE LOUISVILLE KY
200 AM EDT FRI APR 18 2014

NOTE "FAIR" INDICATES FEW OR NO CLOUDS BELOW 12,000 FEET
WITH NO SIGNIFICANT WEATHER AND/OR OBSTRUCTIONS TO VISIBILITY.

KYZ001>023-026-027-061>063-070>075-180700-
WESTERN AND SOUTH CENTRAL KENTUCKY

CITY           SKY/WX    TMP DP  RH WIND       PRES   REMARKS
PADUCAH        FAIR      48  42  80 W3        30.23R
HENDERSON      FAIR      48  39  71 CALM      30.23F
OWENSBORO      FAIR      50  40  68 NE3       30.25F
HOPKINSVILLE   FAIR      54  37  54 SE6       30.24S
BOWLING GREEN  FAIR      49  40  71 CALM      30.27S
GLASGOW        NOT AVBL
$$

KYZ024-025-028>034-038-045-046-053-180700-
NORTH CENTRAL KENTUCKY

CITY           SKY/WX    TMP DP  RH WIND       PRES   REMARKS
LOUISVILLE/SDF CLOUDY    54  37  52 CALM      30.25F
LOUISVILLE/LOU FAIR      51  39  63 CALM      30.27F
FORT KNOX      FAIR      49  37  64 CALM      30.24F
$$

KYZ035>037-039>044-047>052-055>060-089>105-180700-
NORTHEAST KENTUCKY

CITY           SKY/WX    TMP DP  RH WIND       PRES   REMARKS
LEXINGTON      FAIR      45  36  70 S6        30.27F
COVINGTON      MOCLDY    50  36  58 CALM      30.26F
FRANKFORT      FAIR      43  37  79 CALM      30.26F
$$

KYZ054-064>069-076>088-106>120-180700-
SOUTHEAST KENTUCKY

CITY           SKY/WX    TMP DP  RH WIND       PRES   REMARKS
JACKSON        FAIR      53  22  29 CALM      30.28F
LONDON         FAIR      49  32  52 CALM      30.28S
SOMERSET       NOT AVBL
MIDDLESBORO    NOT AVBL
MONTICELLO     FAIR      42  36  79 CALM      30.30S
$$




USA.gov is the U.S. government's official web portal to all federal, state and local government web resources and services.